Dillon, MT

8:42 PM MDT on June 23, 2017 (GMT -0600)
Dillon

Weather History for KDLN - April, 2013

Change the Weather History Date:

Wednesday, April 24, 2013

  Actual Average Record
Temperature  
Mean Temperature 39 °F 44 °F  
Max Temperature 58 °F 57 °F 77 °F (1946)
Min Temperature 19 °F 31 °F 18 °F (1960)
Degree Days  
Heating Degree Days 26    
Month to date heating degree days 656  
Since 1 July heating degree days 6987  
Cooling Degree Days 0    
Month to date cooling degree days 0  
Year to date cooling degree days 0  
Moisture  
Dew Point 13 °F    
Average Humidity 45    
Maximum Humidity 77    
Minimum Humidity 12    
Precipitation  
Precipitation 0.00 in 0.03 in 1.00 in (1971)
Month to date precipitation 0.14 0.80  
Year to date precipitation 0.54 1.88  
Snow  
Snow 0.00 in - - ()
Snow Depth 0.00 in    
Sea Level Pressure  
Sea Level Pressure 30.16 in    
Wind  
Wind Speed 11 mph (SSW)    
Max Wind Speed 26 mph    
Max Gust Speed 31 mph    
Visibility 10 miles    
Events      
T = Trace of Precipitation, MM = Missing Value Source: NWS Daily Summary

Daily Weather History Graph

Daily Weather History Graph

Search for Another Location

Airport or City:

Trip Planner

Search our weather history database for the weather conditions in past years. The results will help you decide how hot, cold, wet, or windy it might be!

Date:

Astronomy

Apr. 24, 2013 Rise Set
Actual Time 6:29 AM MDT 8:28 PM MDT
Civil Twilight 5:57 AM MDT 8:59 PM MDT
Nautical Twilight 5:18 AM MDT 9:39 PM MDT
Astronomical Twilight 4:35 AM MDT 10:22 PM MDT
Moon 7:34 PM MDT 5:38 AM MDT
Length of Visible Light 15h 02m
Length of Day
13h 58m
Waxing Gibbous, 98% of the Moon is Illuminated
Apr 24
Waxing Gibbous
Apr 25
Full
May 2
Last Quarter
May 9
New
May 17
First Quarter

Hourly Weather History & Observations

Time (MDT) Temp. Windchill Dew Point Humidity Pressure Visibility Wind Dir Wind Speed Gust Speed Precip Events Conditions
12:53 AM 24.1 °F 18.2 °F 16.0 °F 71% 30.25 in 10.0 mi SSE 4.6 mph - N/A   Clear
1:53 AM 21.9 °F 17.2 °F 16.0 °F 78% 30.26 in 10.0 mi ESE 3.5 mph - N/A   Clear
2:53 AM 24.1 °F 17.0 °F 16.0 °F 71% 30.25 in 10.0 mi South 5.8 mph - N/A   Clear
4:53 AM 21.0 °F - 14.0 °F 74% 30.28 in 10.0 mi Calm Calm - N/A   Clear
5:53 AM 24.1 °F 17.0 °F 16.0 °F 71% 30.29 in 10.0 mi South 5.8 mph - N/A   Clear
6:53 AM 24.1 °F 14.4 °F 15.1 °F 69% 30.30 in 10.0 mi SSW 9.2 mph - N/A   Clear
7:53 AM 27.0 °F 18.0 °F 18.0 °F 69% 30.31 in 10.0 mi SSW 9.2 mph - N/A   Clear
8:53 AM 34.0 °F 25.0 °F 18.0 °F 52% 30.30 in 10.0 mi SW 12.7 mph - N/A   Clear
9:53 AM 39.0 °F 32.3 °F 19.0 °F 45% 30.27 in 10.0 mi SW 10.4 mph - N/A   Clear
10:53 AM 42.1 °F 37.1 °F 14.0 °F 32% 30.24 in 10.0 mi SSW 8.1 mph - N/A   Clear
11:53 AM 45.0 °F 40.1 °F 12.0 °F 26% 30.22 in 10.0 mi South 9.2 mph 18.4 mph N/A   Clear
12:53 PM 46.9 °F - 12.9 °F 25% 30.22 in 10.0 mi South 8.1 mph 18.4 mph N/A   Clear
1:53 PM 51.1 °F - 12.0 °F 21% 30.17 in 10.0 mi SSW 17.3 mph 24.2 mph N/A   Clear
2:53 PM 54.0 °F - 10.0 °F 17% 30.12 in 10.0 mi SW 16.1 mph 27.6 mph N/A   Clear
3:53 PM 55.9 °F - 10.0 °F 16% 30.08 in 10.0 mi SW 17.3 mph 29.9 mph N/A   Clear
4:53 PM 57.0 °F - 8.1 °F 14% 30.06 in 10.0 mi West 18.4 mph 25.3 mph N/A   Clear
5:53 PM 55.9 °F - 6.1 °F 14% 30.04 in 10.0 mi West 19.6 mph 29.9 mph N/A   Clear
6:53 PM 55.0 °F - 5.0 °F 13% 30.03 in 10.0 mi West 19.6 mph 26.5 mph N/A   Clear
7:53 PM 52.0 °F - 8.1 °F 17% 30.01 in 10.0 mi West 13.8 mph - N/A   Clear
8:53 PM 45.0 °F 39.7 °F 10.0 °F 24% 30.02 in 10.0 mi West 10.4 mph - N/A   Clear
9:53 PM 44.1 °F 39.0 °F 12.0 °F 27% 30.01 in 10.0 mi SSE 9.2 mph - N/A   Clear
10:53 PM 43.0 °F 38.8 °F 14.0 °F 31% 30.00 in 10.0 mi SSW 6.9 mph - N/A   Clear
11:53 PM 43.0 °F 36.8 °F 15.1 °F 32% 29.98 in 10.0 mi South 11.5 mph - N/A   Clear